| time (UTC) | temp F | wind direction | speed MPH | gust MPH | rain 1hr in | rain 24hr in | rain mn in | humidity % | barometer mb |
| 20260504100407 | 49 | 162 | 1.0 | 1.0 | 0.00 | 0.00 | 0.00 | 85 | 1001.9 |
| 20260504081800 | 49 | 137 | 0.0 | 0.0 | 0.00 | 0.00 | 0.00 | 83 | 1002.4 |
| 20260504081257 | 50 | 142 | 0.0 | 0.0 | 0.00 | 0.00 | 0.00 | 82 | 1002.6 |
| 20260504080753 | 50 | 137 | 0.0 | 0.0 | 0.00 | 0.00 | 0.00 | 82 | 1002.4 |
| 20260504080250 | 50 | 135 | 0.0 | 0.0 | 0.00 | 0.00 | 0.00 | 81 | 1002.6 |
| 20260504070217 | 51 | 167 | 3.0 | 3.0 | 0.00 | 0.00 | 0.00 | 81 | 1003.1 |
| 20260504060138 | 51 | 134 | 1.0 | 1.0 | 0.00 | 0.00 | 0.00 | 79 | 1003.8 |
| 20260504050606 | 51 | 125 | 1.0 | 1.0 | 0.00 | 0.00 | 0.00 | 80 | 1004.4 |
| 20260504050103 | 51 | 222 | 5.0 | 7.0 | 0.00 | 0.00 | 0.00 | 80 | 1004.2 |
| 20260504045600 | 51 | 150 | 1.0 | 1.0 | 0.00 | 0.00 | 0.00 | 79 | 1004.4 |
| 20260504045055 | 51 | 169 | 2.0 | 3.0 | 0.00 | 0.00 | 0.00 | 79 | 1004.4 |
| 20260504044553 | 51 | 165 | 1.0 | 3.0 | 0.00 | 0.00 | 0.00 | 79 | 1004.4 |
| 20260504044049 | 51 | 159 | 0.0 | 1.0 | 0.00 | 0.00 | 0.00 | 79 | 1004.4 |
| 20260504043547 | 51 | 225 | 3.0 | 3.0 | 0.00 | 0.00 | 0.00 | 79 | 1004.4 |
| 20260504043044 | 51 | 60 | 3.0 | 3.0 | 0.00 | 0.00 | 0.00 | 79 | 1004.5 |
| 20260504042541 | 51 | 153 | 2.0 | 3.0 | 0.00 | 0.00 | 0.00 | 79 | 1004.3 |
| 20260504042038 | 51 | 124 | 5.0 | 10.0 | 0.00 | 0.00 | 0.00 | 79 | 1004.5 |
| 20260504041533 | 51 | 156 | 2.0 | 3.0 | 0.00 | 0.00 | 0.00 | 79 | 1004.5 |
| 20260504041030 | 51 | 209 | 2.0 | 2.0 | 0.00 | 0.00 | 0.00 | 79 | 1004.7 |
| 20260504040527 | 50 | 103 | 3.0 | 5.0 | 0.00 | 0.00 | 0.00 | 79 | 1004.5 |
| 20260504040024 | 51 | 135 | 1.0 | 2.0 | 0.00 | 0.00 | 0.00 | 78 | 1004.6 |
| 20260504035521 | 51 | 142 | 2.0 | 2.0 | 0.00 | 0.00 | 0.00 | 78 | 1004.6 |
| 20260504035017 | 51 | 157 | 1.0 | 2.0 | 0.00 | 0.00 | 0.00 | 78 | 1004.7 |
| 20260504034515 | 51 | 191 | 1.0 | 2.0 | 0.00 | 0.00 | 0.00 | 78 | 1005.0 |
| 20260504034012 | 51 | 145 | 1.0 | 2.0 | 0.00 | 0.00 | 0.00 | 77 | 1005.0 |
| 20260504033510 | 51 | 301 | 2.0 | 3.0 | 0.00 | 0.00 | 0.00 | 77 | 1004.8 |
| 20260504033007 | 50 | 267 | 3.0 | 6.0 | 0.00 | 0.00 | 0.00 | 78 | 1005.1 |
| 20260504032503 | 51 | 110 | 1.0 | 1.0 | 0.00 | 0.00 | 0.00 | 77 | 1004.9 |
| 20260504032000 | 51 | 263 | 6.0 | 9.0 | 0.00 | 0.00 | 0.00 | 77 | 1005.3 |
| 20260504031457 | 51 | 132 | 0.0 | 0.0 | 0.00 | 0.00 | 0.00 | 77 | 1005.1 |
| 20260504030954 | 51 | 178 | 3.0 | 5.0 | 0.00 | 0.00 | 0.00 | 76 | 1005.1 |
| 20260504030451 | 51 | 120 | 1.0 | 1.0 | 0.00 | 0.00 | 0.00 | 76 | 1005.2 |
| 20260504025946 | 51 | 172 | 2.0 | 2.0 | 0.00 | 0.00 | 0.00 | 75 | 1005.2 |
| 20260504025444 | 51 | 192 | 2.0 | 2.0 | 0.00 | 0.00 | 0.00 | 75 | 1005.2 |
| 20260504024941 | 51 | 227 | 3.0 | 5.0 | 0.00 | 0.00 | 0.00 | 75 | 1005.2 |
| 20260504024438 | 51 | 204 | 1.0 | 1.0 | 0.00 | 0.00 | 0.00 | 75 | 1005.3 |
| 20260504023935 | 51 | 121 | 0.0 | 0.0 | 0.00 | 0.00 | 0.00 | 74 | 1005.3 |
| 20260504023431 | 51 | 81 | 1.0 | 2.0 | 0.00 | 0.00 | 0.00 | 74 | 1005.3 |
| 20260504022927 | 52 | 137 | 2.0 | 2.0 | 0.00 | 0.00 | 0.00 | 73 | 1005.3 |
| 20260504022423 | 52 | 133 | 1.0 | 2.0 | 0.00 | 0.00 | 0.00 | 72 | 1005.1 |
| 20260504021920 | 52 | 142 | 0.0 | 0.0 | 0.00 | 0.00 | 0.00 | 73 | 1005.3 |
| 20260504021417 | 52 | 172 | 1.0 | 1.0 | 0.00 | 0.00 | 0.00 | 72 | 1005.2 |
| 20260504020915 | 52 | 97 | 0.0 | 1.0 | 0.00 | 0.00 | 0.00 | 72 | 1005.1 |
| 20260504020411 | 53 | 217 | 2.0 | 2.0 | 0.00 | 0.00 | 0.00 | 71 | 1005.1 |
| 20260504015908 | 53 | 145 | 1.0 | 1.0 | 0.00 | 0.00 | 0.00 | 71 | 1005.3 |
| 20260504015404 | 53 | 113 | 0.0 | 1.0 | 0.00 | 0.00 | 0.00 | 71 | 1005.4 |
| 20260504014900 | 53 | 172 | 0.0 | 1.0 | 0.00 | 0.00 | 0.00 | 71 | 1005.0 |
| 20260504014356 | 53 | 261 | 2.0 | 3.0 | 0.00 | 0.00 | 0.00 | 71 | 1005.2 |
| 20260504013853 | 53 | 222 | 1.0 | 2.0 | 0.00 | 0.00 | 0.00 | 70 | 1005.2 |
| 20260504013351 | 53 | 141 | 2.0 | 3.0 | 0.00 | 0.00 | 0.00 | 70 | 1005.1 |
| 20260504012847 | 53 | 247 | 1.0 | 1.0 | 0.00 | 0.00 | 0.00 | 69 | 1005.3 |
| 20260504012345 | 53 | 241 | 0.0 | 1.0 | 0.00 | 0.00 | 0.00 | 69 | 1005.2 |
| 20260504011843 | 53 | 151 | 1.0 | 2.0 | 0.00 | 0.00 | 0.00 | 69 | 1005.2 |
| 20260504011339 | 53 | 245 | 1.0 | 2.0 | 0.00 | 0.00 | 0.00 | 69 | 1005.1 |
| 20260504010835 | 54 | 219 | 3.0 | 3.0 | 0.00 | 0.00 | 0.00 | 68 | 1005.2 |
| 20260504010331 | 54 | 96 | 1.0 | 2.0 | 0.00 | 0.00 | 0.00 | 68 | 1005.2 |
| 20260504005828 | 54 | 192 | 1.0 | 2.0 | 0.00 | 0.00 | 0.00 | 68 | 1005.0 |
| 20260504005325 | 54 | 202 | 4.0 | 8.0 | 0.00 | 0.00 | 0.00 | 68 | 1005.2 |
| 20260504004822 | 54 | 142 | 2.0 | 3.0 | 0.00 | 0.00 | 0.00 | 67 | 1005.5 |
| 20260504004320 | 54 | 160 | 0.0 | 0.0 | 0.00 | 0.00 | 0.00 | 67 | 1005.5 |
| 20260504003816 | 54 | 144 | 7.0 | 11.0 | 0.00 | 0.00 | 0.00 | 67 | 1005.3 |
| 20260504003313 | 54 | 165 | 3.0 | 3.0 | 0.00 | 0.00 | 0.00 | 66 | 1005.4 |
| 20260504002809 | 54 | 316 | 2.0 | 3.0 | 0.00 | 0.00 | 0.00 | 66 | 1005.3 |
| 20260504002306 | 55 | 178 | 3.0 | 3.0 | 0.00 | 0.00 | 0.00 | 66 | 1005.4 |
| 20260504001804 | 55 | 88 | 1.0 | 1.0 | 0.00 | 0.00 | 0.00 | 66 | 1005.5 |
| 20260504001301 | 55 | 138 | 2.0 | 5.0 | 0.00 | 0.00 | 0.00 | 65 | 1005.7 |
| 20260504000758 | 55 | 216 | 2.0 | 2.0 | 0.00 | 0.00 | 0.00 | 65 | 1005.8 |
| 20260504000255 | 55 | 128 | 3.0 | 5.0 | 0.00 | 0.00 | 0.00 | 65 | 1005.7 |
| 20260503235753 | 55 | 147 | 1.0 | 2.0 | 0.00 | 0.00 | 0.00 | 65 | 1005.5 |
| 20260503235250 | 55 | 173 | 2.0 | 2.0 | 0.00 | 0.00 | 0.00 | 64 | 1005.5 |
| 20260503234748 | 55 | 162 | 3.0 | 7.0 | 0.00 | 0.00 | 0.00 | 64 | 1005.7 |
| 20260503234245 | 55 | 174 | 1.0 | 2.0 | 0.00 | 0.00 | 0.00 | 64 | 1005.6 |
| 20260503233742 | 55 | 108 | 1.0 | 1.0 | 0.00 | 0.00 | 0.00 | 64 | 1005.7 |
| 20260503233238 | 55 | 234 | 3.0 | 3.0 | 0.00 | 0.00 | 0.00 | 63 | 1005.7 |
| 20260503232735 | 55 | 226 | 5.0 | 7.0 | 0.00 | 0.00 | 0.00 | 63 | 1005.8 |
| 20260503232232 | 55 | 140 | 3.0 | 3.0 | 0.00 | 0.00 | 0.00 | 63 | 1005.9 |
| 20260503231730 | 56 | 165 | 4.0 | 6.0 | 0.00 | 0.00 | 0.00 | 62 | 1006.2 |
| 20260503231227 | 56 | 254 | 3.0 | 5.0 | 0.00 | 0.00 | 0.00 | 62 | 1006.3 |
| 20260503230723 | 56 | 111 | 2.0 | 3.0 | 0.00 | 0.00 | 0.00 | 62 | 1006.4 |
| 20260503230220 | 56 | 93 | 2.0 | 2.0 | 0.00 | 0.00 | 0.00 | 61 | 1006.2 |
| 20260503225718 | 57 | 129 | 2.0 | 2.0 | 0.00 | 0.00 | 0.00 | 61 | 1006.3 |
| 20260503225218 | 57 | 137 | 0.0 | 0.0 | 0.00 | 0.00 | 0.00 | 62 | 1006.4 |
| 20260503224715 | 56 | 82 | 2.0 | 2.0 | 0.00 | 0.00 | 0.00 | 61 | 1006.6 |
| 20260503224213 | 57 | 71 | 2.0 | 3.0 | 0.00 | 0.00 | 0.00 | 61 | 1006.8 |
| 20260503223710 | 57 | 115 | 2.0 | 2.0 | 0.00 | 0.00 | 0.00 | 61 | 1007.0 |
| 20260503223208 | 57 | 190 | 2.0 | 3.0 | 0.00 | 0.00 | 0.00 | 61 | 1007.1 |
| 20260503222704 | 57 | 89 | 1.0 | 1.0 | 0.00 | 0.00 | 0.00 | 60 | 1006.7 |
| 20260503222202 | 58 | 137 | 1.0 | 2.0 | 0.00 | 0.00 | 0.00 | 60 | 1007.3 |
| 20260503221700 | 58 | 236 | 2.0 | 2.0 | 0.00 | 0.00 | 0.00 | 61 | 1007.1 |
| 20260503221157 | 57 | 222 | 2.0 | 2.0 | 0.00 | 0.00 | 0.00 | 61 | 1007.2 |
| 20260503220654 | 57 | 322 | 3.0 | 6.0 | 0.00 | 0.00 | 0.00 | 62 | 1007.3 |
| 20260503220150 | 56 | 141 | 0.0 | 0.0 | 0.00 | 0.00 | 0.00 | 63 | 1007.3 |
| 20260503215647 | 56 | 56 | 3.0 | 7.0 | 0.00 | 0.00 | 0.00 | 63 | 1007.5 |
| 20260503215143 | 56 | 235 | 3.0 | 3.0 | 0.00 | 0.00 | 0.00 | 64 | 1007.4 |
| 20260503214642 | 56 | 170 | 1.0 | 2.0 | 0.00 | 0.00 | 0.00 | 64 | 1007.5 |
| 20260503214138 | 55 | 111 | 0.0 | 1.0 | 0.00 | 0.00 | 0.00 | 65 | 1007.5 |
| 20260503213632 | 55 | 212 | 0.0 | 1.0 | 0.00 | 0.00 | 0.00 | 65 | 1007.3 |
| 20260503213128 | 55 | 215 | 5.0 | 6.0 | 0.00 | 0.00 | 0.00 | 65 | 1007.6 |
| 20260503212626 | 55 | 214 | 4.0 | 8.0 | 0.00 | 0.00 | 0.00 | 65 | 1007.5 |
| 20260503212123 | 55 | 156 | 5.0 | 6.0 | 0.00 | 0.00 | 0.00 | 65 | 1007.4 |
| 20260503211621 | 55 | 231 | 4.0 | 6.0 | 0.00 | 0.00 | 0.00 | 66 | 1007.5 |
| 20260503211115 | 55 | 99 | 3.0 | 3.0 | 0.00 | 0.00 | 0.00 | 66 | 1007.6 |
| 20260503210607 | 54 | 233 | 2.0 | 3.0 | 0.00 | 0.00 | 0.00 | 67 | 1007.6 |
| 20260503205559 | 54 | 219 | 2.0 | 2.0 | 0.00 | 0.00 | 0.00 | 67 | 1007.7 |
| 20260503205055 | 54 | 213 | 5.0 | 8.0 | 0.00 | 0.00 | 0.00 | 67 | 1007.8 |
| 20260503204553 | 54 | 232 | 4.0 | 7.0 | 0.00 | 0.00 | 0.00 | 67 | 1008.0 |
| 20260503204050 | 54 | 176 | 2.0 | 3.0 | 0.00 | 0.00 | 0.00 | 67 | 1008.1 |
| 20260503203547 | 53 | 160 | 2.0 | 2.0 | 0.00 | 0.00 | 0.00 | 68 | 1008.1 |
| 20260503203044 | 53 | 145 | 2.0 | 5.0 | 0.00 | 0.00 | 0.00 | 69 | 1008.2 |
| 20260503202542 | 53 | 170 | 2.0 | 2.0 | 0.00 | 0.00 | 0.00 | 69 | 1008.4 |
| 20260503202039 | 53 | 106 | 8.0 | 11.0 | 0.00 | 0.00 | 0.00 | 70 | 1008.4 |
| 20260503201537 | 53 | 82 | 3.0 | 6.0 | 0.00 | 0.00 | 0.00 | 71 | 1008.6 |
| 20260503201034 | 53 | 90 | 3.0 | 6.0 | 0.00 | 0.00 | 0.00 | 71 | 1008.7 |
| 20260503200530 | 53 | 241 | 7.0 | 10.0 | 0.00 | 0.00 | 0.00 | 69 | 1008.8 |
| 20260503200027 | 53 | 212 | 5.0 | 8.0 | 0.00 | 0.00 | 0.00 | 67 | 1008.6 |
| 20260503195524 | 54 | 253 | 7.0 | 11.0 | 0.00 | 0.00 | 0.00 | 65 | 1008.8 |
| 20260503195021 | 55 | 184 | 3.0 | 3.0 | 0.00 | 0.00 | 0.00 | 63 | 1009.0 |
| 20260503194519 | 55 | 231 | 5.0 | 7.0 | 0.00 | 0.00 | 0.00 | 61 | 1009.1 |
| 20260503194018 | 57 | 216 | 3.0 | 5.0 | 0.00 | 0.00 | 0.00 | 60 | 1008.9 |
| 20260503193515 | 57 | 260 | 4.0 | 5.0 | 0.00 | 0.00 | 0.00 | 58 | 1008.9 |
| 20260503193010 | 58 | 247 | 5.0 | 9.0 | 0.00 | 0.00 | 0.00 | 57 | 1009.1 |
| 20260503192507 | 58 | 247 | 3.0 | 3.0 | 0.00 | 0.00 | 0.00 | 56 | 1009.0 |
| 20260503192002 | 60 | 253 | 4.0 | 5.0 | 0.00 | 0.00 | 0.00 | 53 | 1008.8 |
| 20260503191500 | 59 | 239 | 13.0 | 18.0 | 0.00 | 0.00 | 0.00 | 53 | 1009.0 |
| 20260503190956 | 61 | 39 | 5.0 | 11.0 | 0.00 | 0.00 | 0.00 | 52 | 1009.0 |
| 20260503190453 | 61 | 255 | 8.0 | 11.0 | 0.00 | 0.00 | 0.00 | 50 | 1009.2 |
| 20260503185950 | 61 | 175 | 9.0 | 13.0 | 0.00 | 0.00 | 0.00 | 50 | 1009.0 |
| 20260503185447 | 62 | 144 | 5.0 | 6.0 | 0.00 | 0.00 | 0.00 | 50 | 1009.1 |
| 20260503184946 | 61 | 195 | 6.0 | 8.0 | 0.00 | 0.00 | 0.00 | 50 | 1009.1 |
| 20260503184443 | 62 | 240 | 8.0 | 13.0 | 0.00 | 0.00 | 0.00 | 49 | 1008.7 |
| 20260503183939 | 62 | 247 | 7.0 | 10.0 | 0.00 | 0.00 | 0.00 | 49 | 1009.1 |
| 20260503183436 | 61 | 71 | 5.0 | 8.0 | 0.00 | 0.00 | 0.00 | 50 | 1009.0 |
| 20260503182933 | 62 | 150 | 4.0 | 6.0 | 0.00 | 0.00 | 0.00 | 49 | 1009.5 |
| 20260503182432 | 61 | 163 | 8.0 | 13.0 | 0.00 | 0.00 | 0.00 | 49 | 1009.3 |
| 20260503181929 | 62 | 197 | 9.0 | 11.0 | 0.00 | 0.00 | 0.00 | 48 | 1009.3 |
| 20260503181426 | 63 | 176 | 1.0 | 2.0 | 0.00 | 0.00 | 0.00 | 48 | 1009.1 |
| 20260503180921 | 62 | 243 | 5.0 | 6.0 | 0.00 | 0.00 | 0.00 | 48 | 1009.2 |
| 20260503180420 | 62 | 93 | 4.0 | 7.0 | 0.00 | 0.00 | 0.00 | 49 | 1009.5 |
| 20260503175917 | 62 | 262 | 3.0 | 3.0 | 0.00 | 0.00 | 0.00 | 48 | 1009.3 |
| 20260503175415 | 62 | 235 | 6.0 | 10.0 | 0.00 | 0.00 | 0.00 | 48 | 1009.5 |
| 20260503174910 | 62 | 301 | 2.0 | 2.0 | 0.00 | 0.00 | 0.00 | 47 | 1009.4 |
| 20260503174408 | 62 | 113 | 4.0 | 6.0 | 0.00 | 0.00 | 0.00 | 47 | 1009.6 |
| 20260503173903 | 62 | 229 | 5.0 | 6.0 | 0.00 | 0.00 | 0.00 | 47 | 1009.6 |
| 20260503173359 | 61 | 238 | 5.0 | 8.0 | 0.00 | 0.00 | 0.00 | 49 | 1009.8 |
| 20260503172856 | 63 | 260 | 8.0 | 9.0 | 0.00 | 0.00 | 0.00 | 48 | 1009.6 |
| 20260503172354 | 61 | 134 | 5.0 | 8.0 | 0.00 | 0.00 | 0.00 | 50 | 1009.8 |
| 20260503171850 | 62 | 251 | 5.0 | 7.0 | 0.00 | 0.00 | 0.00 | 50 | 1009.6 |
| 20260503171347 | 61 | 205 | 3.0 | 3.0 | 0.00 | 0.00 | 0.00 | 51 | 1009.7 |
| 20260503170844 | 61 | 252 | 4.0 | 6.0 | 0.00 | 0.00 | 0.00 | 52 | 1009.7 |
| 20260503170340 | 61 | 152 | 3.0 | 5.0 | 0.00 | 0.00 | 0.00 | 51 | 1010.1 |
| 20260503150733 | 54 | 202 | 1.0 | 3.0 | 0.00 | 0.00 | 0.00 | 55 | 1010.7 |
| 20260503150229 | 54 | 129 | 5.0 | 7.0 | 0.00 | 0.00 | 0.00 | 54 | 1010.8 |
| 20260503140153 | 53 | 219 | 2.0 | 2.0 | 0.00 | 0.00 | 0.00 | 56 | 1011.2 |
| 20260503131123 | 51 | 150 | 1.0 | 2.0 | 0.00 | 0.00 | 0.00 | 60 | 1011.7 |
| 20260503130621 | 50 | 225 | 4.0 | 5.0 | 0.00 | 0.00 | 0.00 | 61 | 1011.6 |
| 20260503130118 | 49 | 194 | 0.0 | 1.0 | 0.00 | 0.00 | 0.00 | 65 | 1011.4 |
| 20260503110511 | 42 | 134 | 0.0 | 0.0 | 0.00 | 0.00 | 0.00 | 73 | 1011.6 |